Weather History for Hillsboro, TX

Change the Weather History Date:

Tuesday, February 5, 2013

  Actual Average (KACT) Record (KACT)
Temperature  
Mean Temperature 64 °F 49 °F  
Max Temperature 73 °F 60 °F 82 °F (1942)
Min Temperature 55 °F 38 °F 14 °F (1912)
Degree Days  
Heating Degree Days 1 16  
Month to date heating degree days 83  
Since 1 July heating degree days 1491  
Cooling Degree Days 0 0  
Month to date cooling degree days 0  
Year to date cooling degree days 3  
Growing Degree Days 14 (Base 50)    
Moisture  
Dew Point 55 °F    
Average Humidity 78    
Maximum Humidity 100    
Minimum Humidity 47    
Precipitation  
Precipitation 0.00 in 0.08 in 2.11 in (1961)
Month to date precipitation 0.40  
Year to date precipitation 2.52  
Snow  
Snow 0.00 in 0.00 in 1.00 in (1923)
Month to date snowfall 0.1  
Since 1 July snowfall 0.5  
Snow Depth -    
Sea Level Pressure  
Sea Level Pressure 29.94 in    
Wind  
Wind Speed 6 mph (East)    
Max Wind Speed 14 mph    
Max Gust Speed -    
Visibility 6 miles    
Events Fog    
T = Trace of Precipitation, MM = Missing Value Source: NWS Daily Summary

Daily Weather History Graph

Daily Weather History Graph

Search for Another Location

Airport:

Trip Planner

Search our weather history database for the weather conditions in past years. The results will help you decide how hot, cold, wet, or windy it might be!

Date:

Astronomy

Feb. 05, 2013 Rise Set
Actual Time 7:19 AM CST 6:06 PM CST
Civil Twilight 6:53 AM CST 6:31 PM CST
Nautical Twilight 6:24 AM CST 7:00 PM CST
Astronomical Twilight 5:55 AM CST 7:29 PM CST
Moon 2:56 AM CST (2/5) 1:31 PM CST (2/5)
Length of Visible Light 11h 38m
Length of Day
10h 47m
Waning Crescent, 26% of the Moon is Illuminated
Feb 5
Waning Crescent
Feb 10
New
Feb 17
First Quarter
Feb 25
Full
Mar 4
Last Quarter

Hourly Weather History & Observations

Time (CST) Temp. Dew Point Humidity Pressure Visibility Wind Dir Wind Speed Gust Speed Precip Events Conditions
12:15 AM 59.0 °F 55.4 °F 88% 29.87 in 7.0 mi East 9.2 mph - N/A   Clear
12:35 AM 57.2 °F 53.6 °F 88% 29.87 in 5.0 mi East 9.2 mph - N/A   Clear
12:55 AM 57.2 °F 53.6 °F 88% 29.87 in 3.0 mi East 10.4 mph - N/A   Clear
1:15 AM 57.2 °F 55.4 °F 94% 29.87 in 2.0 mi ESE 9.2 mph - N/A   Clear
1:35 AM 59.0 °F 55.4 °F 88% 29.87 in 0.8 mi ESE 9.2 mph - N/A   Overcast
1:55 AM 59.0 °F 55.4 °F 88% 29.87 in 0.5 mi ESE 8.1 mph - N/A Fog Fog
2:15 AM 59.0 °F 55.4 °F 88% 29.88 in 0.5 mi SE 6.9 mph - N/A Fog Fog
2:35 AM 59.0 °F 55.4 °F 88% 29.88 in 0.5 mi SE 8.1 mph - N/A Fog Fog
2:55 AM 59.0 °F 55.4 °F 88% 29.88 in 0.2 mi SE 6.9 mph - N/A Fog Fog
3:15 AM 59.0 °F 55.4 °F 88% 29.88 in 0.2 mi ESE 5.8 mph - N/A Fog Fog
3:35 AM 59.0 °F 55.4 °F 88% 29.88 in 0.5 mi East 4.6 mph - N/A Fog Fog
3:55 AM 57.2 °F 55.4 °F 94% 29.88 in 0.5 mi ESE 5.8 mph - N/A Fog Fog
4:15 AM 59.0 °F 55.4 °F 88% 29.88 in 0.8 mi ESE 4.6 mph - N/A   Overcast
4:35 AM 59.0 °F 55.4 °F 88% 29.87 in 0.8 mi ESE 5.8 mph - N/A   Overcast
4:55 AM 59.0 °F 55.4 °F 88% 29.88 in 0.8 mi ESE 3.5 mph - N/A   Overcast
5:15 AM 57.2 °F 55.4 °F 94% 29.87 in 1.5 mi ESE 6.9 mph - N/A   Overcast
5:35 AM 57.2 °F 55.4 °F 94% 29.88 in 1.5 mi Calm Calm - N/A   Overcast
5:55 AM 57.2 °F 55.4 °F 94% 29.88 in 2.5 mi ESE 3.5 mph - N/A   Overcast
6:15 AM 57.2 °F 55.4 °F 94% 29.89 in 3.0 mi SE 4.6 mph - N/A   Overcast
6:55 AM 55.4 °F 55.4 °F 100% 29.92 in 4.0 mi Calm Calm - N/A   Overcast
7:15 AM 55.4 °F 55.4 °F 100% 29.93 in 4.0 mi Calm Calm - N/A   Overcast
7:35 AM 55.4 °F 55.4 °F 100% 29.93 in 5.0 mi Calm Calm - N/A   Overcast
8:15 AM 55.4 °F 55.4 °F 100% 29.95 in 7.0 mi Calm Calm - N/A   Overcast
8:35 AM 57.2 °F 55.4 °F 94% 29.96 in 7.0 mi Calm Calm - N/A   Overcast
8:55 AM 57.2 °F 55.4 °F 94% 29.97 in 7.0 mi Calm Calm - N/A   Overcast
9:15 AM 59.0 °F 55.4 °F 88% 29.97 in 7.0 mi Calm Calm - N/A   Overcast
9:35 AM 59.0 °F 55.4 °F 88% 29.98 in 10.0 mi Calm Calm - N/A   Overcast
9:55 AM 60.8 °F 55.4 °F 82% 29.99 in 10.0 mi ENE 3.5 mph - N/A   Overcast
10:15 AM 60.8 °F 55.4 °F 82% 29.99 in 10.0 mi NE 4.6 mph - N/A   Overcast
10:35 AM 62.6 °F 55.4 °F 77% 30.00 in 10.0 mi ENE 5.8 mph - N/A   Overcast
10:55 AM 64.4 °F 55.4 °F 73% 29.99 in 10.0 mi ENE 6.9 mph - N/A   Overcast
11:15 AM 64.4 °F 55.4 °F 73% 29.99 in 10.0 mi East 5.8 mph - N/A   Overcast
11:35 AM 64.4 °F 55.4 °F 73% 29.99 in 10.0 mi East 6.9 mph - N/A   Mostly Cloudy
11:55 AM 68.0 °F 55.4 °F 64% 29.98 in 10.0 mi Calm Calm - N/A   Scattered Clouds
12:15 PM 68.0 °F 55.4 °F 64% 29.97 in 10.0 mi ESE 3.5 mph - N/A   Clear
12:35 PM 69.8 °F 55.4 °F 60% 29.96 in 10.0 mi ESE 5.8 mph - N/A   Clear
12:55 PM 69.8 °F 55.4 °F 60% 29.96 in 10.0 mi ESE 5.8 mph - N/A   Clear
1:15 PM 69.8 °F 55.4 °F 60% 29.95 in 10.0 mi SE 3.5 mph - N/A   Clear
1:35 PM 71.6 °F 53.6 °F 53% 29.94 in 10.0 mi Calm Calm - N/A   Clear
1:55 PM 71.6 °F 53.6 °F 53% 29.94 in 10.0 mi Calm Calm - N/A   Clear
2:15 PM 71.6 °F 53.6 °F 53% 29.93 in 10.0 mi Calm Calm - N/A   Scattered Clouds
2:35 PM 71.6 °F 53.6 °F 53% 29.93 in 10.0 mi ENE 3.5 mph - N/A   Clear
2:55 PM 71.6 °F 51.8 °F 50% 29.93 in 10.0 mi North 3.5 mph - N/A   Clear
3:15 PM 71.6 °F 53.6 °F 53% 29.92 in 10.0 mi NE 4.6 mph - N/A   Mostly Cloudy
3:35 PM 71.6 °F 53.6 °F 53% 29.92 in 10.0 mi ENE 4.6 mph - N/A   Scattered Clouds
3:55 PM 71.6 °F 53.6 °F 53% 29.92 in 10.0 mi Calm Calm - N/A   Scattered Clouds
4:15 PM 73.4 °F 53.6 °F 50% 29.92 in 10.0 mi ESE 4.6 mph - N/A   Clear
4:35 PM 73.4 °F 51.8 °F 47% 29.92 in 10.0 mi East 5.8 mph - N/A   Scattered Clouds
4:55 PM 73.4 °F 51.8 °F 47% 29.92 in 10.0 mi East 6.9 mph - N/A   Scattered Clouds
5:15 PM 71.6 °F 51.8 °F 50% 29.92 in 10.0 mi NE 8.1 mph - N/A   Scattered Clouds
5:35 PM 71.6 °F 53.6 °F 53% 29.92 in 10.0 mi ENE 5.8 mph - N/A   Clear
5:55 PM 68.0 °F 53.6 °F 60% 29.93 in 10.0 mi NE 5.8 mph - N/A   Clear
6:15 PM 64.4 °F 53.6 °F 68% 29.93 in 10.0 mi NE 5.8 mph - N/A   Clear
6:35 PM 62.6 °F 51.8 °F 68% 29.94 in 10.0 mi NE 5.8 mph - N/A   Clear
6:55 PM 62.6 °F 51.8 °F 68% 29.95 in 10.0 mi NE 6.9 mph - N/A   Clear
7:15 PM 62.6 °F 53.6 °F 72% 29.95 in 10.0 mi NE 10.4 mph - N/A   Clear
7:35 PM 62.6 °F 55.4 °F 77% 29.96 in 10.0 mi NE 10.4 mph - N/A   Clear
7:55 PM 62.6 °F 55.4 °F 77% 29.97 in 7.0 mi NE 12.7 mph - N/A   Clear
8:15 PM 60.8 °F 55.4 °F 82% 29.98 in 7.0 mi NE 11.5 mph - N/A   Clear
8:35 PM 60.8 °F 55.4 °F 82% 29.98 in 5.0 mi NE 10.4 mph - N/A   Haze
8:55 PM 60.8 °F 55.4 °F 82% 29.98 in 5.0 mi NE 10.4 mph - N/A   Haze
9:15 PM 59.0 °F 55.4 °F 88% 29.99 in 5.0 mi NE 12.7 mph - N/A   Clear
9:35 PM 59.0 °F 55.4 °F 88% 29.99 in 4.0 mi NE 11.5 mph - N/A   Clear
9:55 PM 59.0 °F 55.4 °F 88% 30.00 in 4.0 mi NE 12.7 mph - N/A   Clear
10:15 PM 59.0 °F 55.4 °F 88% 29.99 in 4.0 mi ENE 12.7 mph - N/A   Clear
10:35 PM 59.0 °F 55.4 °F 88% 29.99 in 3.0 mi NE 13.8 mph - N/A   Clear
10:55 PM 57.2 °F 55.4 °F 94% 30.00 in 3.0 mi NE 12.7 mph - N/A   Clear
11:15 PM 57.2 °F 53.6 °F 88% 30.00 in 2.5 mi NE 12.7 mph - N/A   Clear
11:35 PM 57.2 °F 53.6 °F 88% 30.00 in 2.5 mi ENE 13.8 mph - N/A   Clear
11:55 PM 57.2 °F 53.6 °F 88% 29.99 in 2.5 mi ENE 13.8 mph - N/A   Scattered Clouds